Probability
0 0 0 0 0 0 0 0 0 0 0 0 0 0 0 0 0 0 0 0 0 0 0 0 0 0 0 0 0 0 0 0 0 0 0 0 0 0 0 0 0 0 0
0 0 0 0 0 0 0 0 0 0 0 0 0 0 0 0 0 0 0 0 0 0 0 0 0 0 0 0 0 0 0 0 0 0 0 0 0 0 0 0 0 0 0
0 0 0 0 0 0 0 0 0 0 0 0 0 0 0 0 0 0 0 0 0 0 0 0 0 0 0 0 0 0 0 0 0 0 0 0 0 0 0 0 0 0 0
0 0 0 0 0 0 0 0 0 0 0 0 0 0 0 0 0 0 0 0 0 0 0 0 0 0 0 0 0 0 0 1 1 0 0 0 0 0 0 0 0 0 0
0 0 0 0 0 0 0 0 0 0 0 0 0 0 0 0 0 0 0 0 0 0 0 0 0 0 0 0 0 0 1 2 2 1 1 0 0 0 0 0 0 0 0
0 0 0 0 0 0 0 0 0 0 0 0 0 0 0 0 0 0 0 0 0 0 0 0 0 0 0 0 0 0 1 2 3 3 2 1 0 0 0 0 0 0 0
0 0 0 0 0 0 0 0 0 0 0 0 0 0 0 0 0 0 0 0 0 0 0 0 0 0 0 0 0 0 0 1 2 3 3 2 1 1 0 0 0 0 0
0 0 0 0 0 0 0 0 0 0 0 0 0 0 0 0 0 0 0 0 0 0 0 0 0 0 0 0 0 0 0 0 1 2 3 3 3 2 1 0 0 0 0
0 0 0 0 0 0 0 0 0 0 0 0 0 0 0 0 0 0 0 0 0 0 0 0 0 0 0 0 0 0 0 0 0 1 1 2 3 3 2 1 1 0 0
0 0 0 0 0 0 0 0 0 0 0 0 0 0 0 0 0 0 0 0 0 0 0 0 0 0 0 0 0 0 0 0 0 0 0 1 1 2 2 2 1 0 0
0 0 0 0 0 0 0 0 0 0 0 0 0 0 0 0 0 0 0 0 0 0 0 0 0 0 0 0 0 0 0 0 0 0 0 0 0 1 1 1 1 0 0
0 0 0 0 0 0 0 0 0 0 0 0 0 0 0 0 0 0 0 0 0 0 0 0 0 0 0 0 0 0 0 0 0 0 0 0 0 0 0 0 0 0 0
0 0 0 0 0 0 0 0 0 0 0 0 0 0 0 0 0 0 0 0 0 0 0 0 0 0 0 0 0 0 0 0 0 0 0 0 0 0 0 0 0 0 0
0 0 0 0 0 0 0 0 0 0 0 0 0 0 0 0 0 0 0 0 0 0 0 0 0 0 0 0 0 0 0 0 0 0 0 0 0 0 0 0 0 0 0
0 0 0 0 0 0 0 0 0 0 0 0 0 0 0 0 0 0 0 0 0 0 0 0 0 0 0 0 0 0 0 0 0 0 0 0 0 0 0 0 0 0 0
0 0 0 0 0 0 0 0 0 0 0 0 0 0 0 0 0 0 0 0 0 0 0 0 0 0 0 0 0 0 0 0 0 0 0 0 0 0 0 0 0 0 0
0 0 0 0 0 0 0 0 0 0 0 0 0 0 0 0 0 0 0 0 0 0 0 0 0 0 0 0 0 0 0 0 0 0 0 0 0 0 0 0 0 0 0
0 0 0 0 0 0 0 0 0 0 0 0 0 0 0 0 0 0 0 0 0 0 0 0 0 0 0 0 0 0 0 0 0 0 0 0 0 0 0 0 0 0 0
0 0 0 0 0 0 0 0 0 0 0 0 0 0 0 0 0 0 0 0 0 0 0 0 0 0 0 0 0 0 0 0 0 0 0 0 0 0 0 0 0 0 0
0 0 0 0 0 0 0 0 0 0 0 0 0 0 0 0 0 0 0 0 0 0 0 0 0 0 0 0 0 0 0 0 0 0 0 0 0 0 0 0 0 0 0
0 0 0 0 0 0 0 0 0 0 0 0 0 0 0 0 0 0 0 0 0 0 0 0 0 0 0 0 0 0 0 0 0 0 0 0 0 0 0 0 0 0 0
0 0 0 0 0 0 0 0 0 0 0 0 0 0 0 0 0 0 0 0 0 0 0 0 0 0 0 0 0 0 0 0 0 0 0 0 0 0 0 0 0 0 0
0 0 0 0 0 0 0 0 0 0 0 0 0 0 0 0 0 0 0 0 0 0 0 0 0 0 0 0 0 0 0 0 0 0 0 0 0 0 0 0 0 0 0
0 0 0 0 0 0 0 0 0 0 0 0 0 0 0 0 0 0 0 0 0 0 0 0 0 0 0 0 0 0 0 0 0 0 0 0 0 0 0 0 0 0 0
0 0 0 0 0 0 0 0 0 0 0 0 0 0 0 0 0 0 0 0 0 0 0 0 0 0 0 0 0 0 0 0 0 0 0 0 0 0 0 0 0 0 0
0 0 0 0 0 0 0 0 0 0 0 0 0 0 0 0 0 0 0 0 0 0 0 0 0 0 0 0 0 0 0 0 0 0 0 0 0 0 0 0 0 0 0
Wind_Speed
1 2 3 4 5 5 5 4 3 1 1 1 2 2 3 4 3 4 5 6 6 7 7 6 6 6 7 8 8 6 6 6 3 2 2 3 3 5 5 5 6 8 8
3 3 4 5 6 5 5 5 4 2 2 1 1 2 2 3 4 3 4 5 5 6 5 6 6 6 6 7 8 7 5 5 5 5 3 3 3 5 6 5 7 8 7
7 5 5 5 5 6 5 4 4 3 2 1 0 1 1 1 1 2 3 4 5 5 6 7 7 6 7 7 9 8 8 7 5 5 5 5 7 4 3 5 7 7 7
7 6 6 5 5 4 4 4 4 4 3 3 2 1 0 1 2 2 3 4 4 5 6 7 7 7 7 8 8 8 8 7 6 4 5 4 4 4 3 3 4 6 8
8 7 6 6 4 4 4 4 4 5 4 4 3 2 1 1 2 2 3 4 4 4 5 6 6 7 6 7 8 7 8 8 7 6 4 5 3 3 3 5 3 3 5
7 7 5 5 4 4 4 4 5 5 5 5 4 3 2 2 3 3 3 3 3 3 4 4 4 5 5 6 7 7 8 8 9 7 6 5 5 6 6 9 5 4 3
8 7 6 5 4 4 4 4 5 5 5 5 5 4 3 2 2 3 3 3 3 3 4 4 3 3 4 5 5 6 6 7 8 8 7 7 7 4 4 6 5 4 2
7 7 6 5 4 4 4 4 5 4 5 5 5 4 4 3 2 3 2 3 2 3 4 4 3 4 4 4 4 4 4 4 5 6 6 6 6 5 5 4 4 3 2
7 7 6 5 5 4 4 4 4 4 4 4 4 4 5 4 4 4 4 3 3 4 5 5 5 4 4 4 3 2 2 2 2 3 4 4 3 3 3 4 4 5 5
6 6 5 5 4 4 4 4 4 4 3 4 4 4 5 5 5 4 5 5 5 5 6 6 6 6 6 5 4 3 3 3 2 2 2 1 1 1 1 1 2 4 5
7 6 5 5 5 4 4 4 4 4 4 4 4 5 5 5 6 5 6 5 6 7 7 6 6 7 7 6 5 5 5 4 4 4 4 3 3 2 2 1 0 1 1
7 6 6 5 5 4 4 4 3 3 3 4 4 5 5 6 6 6 6 6 6 7 7 7 7 8 8 8 7 7 7 6 6 6 5 5 4 4 3 2 2 1 1
7 6 5 5 5 4 4 3 3 3 3 4 4 5 5 6 6 6 6 6 6 6 7 7 8 8 8 8 8 8 8 8 8 7 6 6 5 5 4 4 3 2 2
7 6 5 5 4 4 4 4 3 3 3 4 5 5 5 5 5 5 6 6 6 7 7 7 7 7 8 8 8 8 8 8 8 8 7 6 6 4 4 4 4 3 3
7 7 7 5 5 4 4 3 3 3 3 4 4 4 4 5 5 6 6 6 7 8 7 7 8 7 7 7 8 7 8 8 8 8 7 7 7 7 5 4 3 3 3
8 8 7 7 6 5 4 4 3 3 3 4 4 4 4 5 5 5 6 6 7 7 7 8 8 8 8 12 13 9 7 7 8 7 7 8 9 10 11 10 8 6 4
8 9 8 7 6 6 5 5 4 4 4 4 4 4 4 5 5 5 6 6 6 6 7 7 7 8 10 14 14 13 8 7 6 6 6 5 6 8 6 8 10 9 9
8 8 7 7 6 5 5 5 4 4 4 4 4 4 4 4 4 5 5 5 5 5 5 6 6 6 8 12 12 12 7 6 6 5 5 4 4 4 5 5 5 5 5
7 7 7 7 6 6 6 6 5 5 4 4 4 4 4 4 4 4 4 4 4 4 4 4 5 5 5 9 10 9 4 4 5 4 4 3 3 6 7 5 4 4 4
6 7 7 6 7 6 6 6 6 5 5 4 4 4 4 4 4 4 3 3 3 3 3 3 3 3 3 6 8 7 2 3 2 3 4 5 4 5 6 2 2 2 3
6 7 7 7 7 7 7 7 6 5 5 5 4 4 4 4 4 3 2 3 3 3 2 2 1 2 2 4 5 5 2 1 1 1 2 3 6 6 6 4 0 3 2
6 7 7 6 6 7 8 7 6 6 6 5 5 4 4 4 3 3 3 2 2 2 1 1 0 1 2 2 2 4 3 2 1 1 2 3 6 6 6 4 5 5 3
6 6 7 7 6 7 8 9 7 7 7 6 5 5 4 3 4 4 3 2 2 2 2 2 1 2 1 3 4 4 4 3 0 1 4 6 7 6 4 6 6 4 1
7 7 8 8 8 8 8 8 8 8 7 7 6 5 5 4 3 3 3 3 3 3 2 3 2 2 2 2 2 2 2 3 2 2 4 6 6 4 4 4 3 2 2
7 8 9 9 9 9 9 8 9 9 8 7 6 5 5 5 4 3 3 4 3 5 4 3 3 3 3 4 5 2 2 2 3 2 1 1 2 2 2 2 2 2 2
7 8 9 9 9 9 9 9 10 10 9 7 6 5 5 4 4 3 2 5 5 5 6 7 5 4 5 5 5 5 6 6 7 2 0 1 2 2 3 3 3 2 3
Wind_Direction
170 93 84 94 95 79 81 83 89 55 94 156 195 217 232 238 239 235 231 223 220 217 215 224 223 215 219 222 215 211 214 220 180 180 251 277 249 236 226 214 212 214 212
124 90 75 68 75 79 74 69 63 56 63 124 189 210 228 240 243 250 248 240 235 227 219 220 224 220 224 229 222 212 212 212 180 176 184 265 289 256 226 209 215 217 210
151 129 104 90 80 70 64 61 51 50 47 39 80 16 8 334 311 275 265 261 255 247 238 232 229 225 220 228 226 217 215 221 206 190 174 191 228 252 268 230 222 213 210
146 139 127 109 95 82 63 51 41 39 34 41 64 86 135 254 262 271 275 287 277 265 255 247 239 235 229 229 229 222 219 218 215 212 222 214 187 193 255 263 233 217 215
151 145 136 124 107 86 66 49 44 37 28 35 45 56 29 270 288 302 302 298 292 281 270 258 251 245 239 236 233 226 221 218 218 204 201 221 232 217 220 259 257 242 229
150 138 127 116 97 73 57 47 47 36 27 33 34 37 14 339 334 329 319 310 303 301 302 287 268 258 251 246 242 235 227 225 224 218 202 193 197 205 210 235 239 237 245
148 140 132 118 103 81 61 50 54 39 25 28 25 19 11 1 339 317 313 318 319 318 320 319 304 287 274 267 259 249 241 233 229 227 223 221 226 211 208 225 232 229 243
150 147 143 131 115 97 75 62 60 44 27 24 15 13 12 8 351 344 344 342 331 319 326 333 331 320 310 300 286 270 261 251 242 238 232 231 233 226 214 211 206 225 241
155 149 141 130 122 106 86 79 73 52 30 18 14 17 15 17 14 11 13 5 354 347 355 358 359 354 349 339 327 317 306 286 268 261 247 240 242 230 222 210 200 206 229
151 146 141 136 127 115 99 81 77 64 37 27 25 35 24 22 19 23 20 12 5 6 7 10 10 10 11 10 15 12 6 23 15 6 9 355 335 322 294 244 233 224 225
160 156 151 142 130 117 104 89 73 60 42 36 37 39 30 26 30 31 23 17 17 17 18 17 21 22 20 19 29 30 29 41 38 34 44 44 41 49 36 33 8 274 228
161 158 153 143 135 125 111 96 79 62 47 47 52 46 38 35 35 30 25 27 29 25 25 27 32 31 30 30 36 39 38 44 44 39 48 47 49 50 39 41 35 13 29
157 154 153 153 147 136 121 103 81 64 57 64 63 54 43 40 37 33 31 33 36 34 34 37 38 35 34 35 38 45 48 50 48 45 49 44 49 49 41 40 37 28 29
167 165 165 161 152 141 129 114 89 70 74 74 71 63 51 47 45 42 41 40 42 43 40 41 42 42 43 42 42 50 54 56 53 50 51 49 53 59 56 51 42 42 47
179 177 172 166 156 146 135 122 103 83 83 82 76 70 64 59 56 52 50 49 49 50 46 47 44 42 49 50 51 52 58 59 57 50 46 47 56 64 67 67 53 50 56
189 181 172 168 167 162 152 135 117 102 97 91 83 77 73 67 63 61 58 58 54 51 50 48 48 49 53 59 63 66 58 56 55 50 42 40 41 48 57 66 64 62 63
187 180 176 172 169 166 153 144 133 120 109 102 92 84 84 78 70 70 67 62 60 58 54 50 49 52 56 61 65 68 66 60 55 50 43 42 41 44 37 44 44 39 42
181 175 166 161 158 151 143 138 132 127 122 113 104 102 100 93 85 80 75 67 63 61 57 52 47 48 56 64 68 71 60 57 50 47 46 44 22 34 52 46 36 26 18
167 161 157 152 151 151 148 140 138 137 134 128 121 117 114 109 102 94 89 82 78 71 63 56 49 44 42 64 71 71 55 51 38 26 31 41 11 26 48 53 34 18 358
141 144 143 141 152 159 151 148 151 151 150 144 135 128 125 124 121 114 105 97 95 89 82 65 47 41 24 55 71 77 67 52 27 12 5 8 14 15 31 72 40 353 321
141 144 148 156 165 161 156 158 161 166 157 148 143 139 139 138 135 129 123 124 116 104 93 79 28 11 12 26 52 72 99 80 39 16 347 326 344 351 349 3 317 291 315
152 156 160 167 168 166 164 168 177 170 157 156 157 157 159 159 147 144 143 143 141 133 136 130 319 323 330 339 6 31 42 77 115 319 286 293 321 334 340 343 313 326 16
173 170 171 172 176 178 175 180 182 170 165 164 169 170 168 163 157 163 166 163 167 173 195 203 229 269 300 325 350 1 357 5 81 269 300 315 326 336 338 322 328 4 20
186 179 178 186 192 190 188 185 176 174 173 176 179 177 172 169 166 167 169 169 180 188 198 207 220 244 271 276 283 300 316 325 320 303 314 331 338 345 331 330 346 342 280
192 188 193 200 199 191 193 186 178 176 181 183 184 182 180 174 174 178 189 187 203 195 193 203 203 207 241 254 260 254 240 246 254 265 234 329 331 333 325 315 305 300 309
194 197 202 205 200 195 197 190 182 180 181 186 188 185 180 179 177 176 198 222 212 214 206 200 200 223 242 266 285 296 298 304 308 319 268 288 293 292 295 299 299 293 288